Year,Month,Day,Hour,Minute,Value (Times are PST for temperature in C)
2010,10,15,00,00,8.90
2010,10,15,00,01,8.90
2010,10,15,00,02,8.90
2010,10,15,00,03,8.90
2010,10,15,00,04,8.80
2010,10,15,00,05,8.80
2010,10,15,00,06,8.80
2010,10,15,00,07,8.80
2010,10,15,00,08,8.80
2010,10,15,00,09,8.70
2010,10,15,00,10,8.70
2010,10,15,00,11,8.70
2010,10,15,00,12,8.70
2010,10,15,00,13,8.60
2010,10,15,00,14,8.60
2010,10,15,00,15,8.60
2010,10,15,00,16,8.70
2010,10,15,00,17,8.70
2010,10,15,00,18,8.80
2010,10,15,00,19,8.80
2010,10,15,00,20,8.80
2010,10,15,00,21,8.80
2010,10,15,00,22,8.80
2010,10,15,00,23,8.80
2010,10,15,00,24,8.80
2010,10,15,00,25,8.80
2010,10,15,00,26,8.80
2010,10,15,00,27,8.70
2010,10,15,00,28,8.70
2010,10,15,00,29,8.70
2010,10,15,00,30,8.70
2010,10,15,00,31,8.60
2010,10,15,00,32,8.60
2010,10,15,00,33,8.60
2010,10,15,00,34,8.60
2010,10,15,00,35,8.60
2010,10,15,00,36,8.50
2010,10,15,00,37,8.50
2010,10,15,00,38,8.40
2010,10,15,00,39,8.40
2010,10,15,00,40,8.30
2010,10,15,00,41,8.30
2010,10,15,00,42,8.20
2010,10,15,00,43,8.20
2010,10,15,00,44,8.10
2010,10,15,00,45,8.10
2010,10,15,00,46,8.10
2010,10,15,00,47,8.00
2010,10,15,00,48,8.10
2010,10,15,00,49,8.10
2010,10,15,00,50,8.00
2010,10,15,00,51,8.00
2010,10,15,00,52,7.90
2010,10,15,00,53,7.90
2010,10,15,00,54,7.90
2010,10,15,00,55,7.80
2010,10,15,00,56,7.80
2010,10,15,00,57,7.80
2010,10,15,00,58,7.80
2010,10,15,00,59,7.80
2010,10,15,01,00,7.80
2010,10,15,01,01,7.80
2010,10,15,01,02,7.80
2010,10,15,01,03,7.80
2010,10,15,01,04,7.70
2010,10,15,01,05,7.70
2010,10,15,01,06,7.70
2010,10,15,01,07,7.70
2010,10,15,01,08,7.70
2010,10,15,01,09,7.70
2010,10,15,01,10,7.70
2010,10,15,01,11,7.70
2010,10,15,01,12,7.70
2010,10,15,01,13,7.60
2010,10,15,01,14,7.60
2010,10,15,01,15,7.60
2010,10,15,01,16,7.60
2010,10,15,01,17,7.60
2010,10,15,01,18,7.60
2010,10,15,01,19,7.60
2010,10,15,01,20,7.60
2010,10,15,01,21,7.60
2010,10,15,01,22,7.60
2010,10,15,01,23,7.50
2010,10,15,01,24,7.50
2010,10,15,01,25,7.50
2010,10,15,01,26,7.50
2010,10,15,01,27,7.50
2010,10,15,01,28,7.50
2010,10,15,01,29,7.60
2010,10,15,01,30,7.50
2010,10,15,01,31,7.50
2010,10,15,01,32,7.40
2010,10,15,01,33,7.40
2010,10,15,01,34,7.40
2010,10,15,01,35,7.30
2010,10,15,01,36,7.30
2010,10,15,01,37,7.30
2010,10,15,01,38,7.30
2010,10,15,01,39,7.20
2010,10,15,01,40,7.20
2010,10,15,01,41,7.20
2010,10,15,01,42,7.20
2010,10,15,01,43,7.20
2010,10,15,01,44,7.10
2010,10,15,01,45,7.10
2010,10,15,01,46,7.10
2010,10,15,01,47,7.10
2010,10,15,01,48,7.10
2010,10,15,01,49,7.10
2010,10,15,01,50,7.10
2010,10,15,01,51,7.10
2010,10,15,01,52,7.00
2010,10,15,01,53,7.00
2010,10,15,01,54,7.00
2010,10,15,01,55,7.00
2010,10,15,01,56,7.00
2010,10,15,01,57,7.10
2010,10,15,01,58,7.10
2010,10,15,01,59,7.20
2010,10,15,02,00,7.30
2010,10,15,02,01,7.30
2010,10,15,02,02,7.30
2010,10,15,02,03,7.30
2010,10,15,02,04,7.20
2010,10,15,02,05,7.20
2010,10,15,02,06,7.20
2010,10,15,02,07,7.20
2010,10,15,02,08,7.20
2010,10,15,02,09,7.20
2010,10,15,02,10,7.20
2010,10,15,02,11,7.20
2010,10,15,02,12,7.10
2010,10,15,02,13,7.00
2010,10,15,02,14,7.00
2010,10,15,02,15,6.90
2010,10,15,02,16,6.90
2010,10,15,02,17,6.80
2010,10,15,02,18,6.80
2010,10,15,02,19,6.80
2010,10,15,02,20,6.70
2010,10,15,02,21,6.70
2010,10,15,02,22,6.70
2010,10,15,02,23,6.70
2010,10,15,02,24,6.60
2010,10,15,02,25,6.60
2010,10,15,02,26,6.60
2010,10,15,02,27,6.60
2010,10,15,02,28,6.50
2010,10,15,02,29,6.50
2010,10,15,02,30,6.40
2010,10,15,02,31,6.40
2010,10,15,02,32,6.40
2010,10,15,02,33,6.40
2010,10,15,02,34,6.30
2010,10,15,02,35,6.30
2010,10,15,02,36,6.30
2010,10,15,02,37,6.30
2010,10,15,02,38,6.30
2010,10,15,02,39,6.30
2010,10,15,02,40,6.20
2010,10,15,02,41,6.20
2010,10,15,02,42,6.20
2010,10,15,02,43,6.20
2010,10,15,02,44,6.10
2010,10,15,02,45,6.10
2010,10,15,02,46,6.10
2010,10,15,02,47,6.10
2010,10,15,02,48,6.10
2010,10,15,02,49,6.00
2010,10,15,02,50,6.00
2010,10,15,02,51,6.00
2010,10,15,02,52,5.90
2010,10,15,02,53,5.90
2010,10,15,02,54,5.90
2010,10,15,02,55,5.90
2010,10,15,02,56,5.80
2010,10,15,02,57,5.80
2010,10,15,02,58,5.80
2010,10,15,02,59,5.80
2010,10,15,03,00,5.80
2010,10,15,03,01,5.80
2010,10,15,03,02,5.70
2010,10,15,03,03,5.70
2010,10,15,03,04,5.70
2010,10,15,03,05,5.70
2010,10,15,03,06,5.60
2010,10,15,03,07,5.60
2010,10,15,03,08,5.60
2010,10,15,03,09,5.60
2010,10,15,03,10,5.60
2010,10,15,03,11,5.60
2010,10,15,03,12,5.60
2010,10,15,03,13,5.60
2010,10,15,03,14,5.60
2010,10,15,03,15,5.60
2010,10,15,03,16,5.60
2010,10,15,03,17,5.50
2010,10,15,03,18,5.50
2010,10,15,03,19,5.50
2010,10,15,03,20,5.50
2010,10,15,03,21,5.50
2010,10,15,03,22,5.50
2010,10,15,03,23,5.50
2010,10,15,03,24,5.50
2010,10,15,03,25,5.40
2010,10,15,03,26,5.30
2010,10,15,03,27,5.30
2010,10,15,03,28,5.30
2010,10,15,03,29,5.30
2010,10,15,03,30,5.40
2010,10,15,03,31,5.30
2010,10,15,03,32,5.30
2010,10,15,03,33,5.30
2010,10,15,03,34,5.30
2010,10,15,03,35,5.30
2010,10,15,03,36,5.40
2010,10,15,03,37,5.40
2010,10,15,03,38,5.40
2010,10,15,03,39,5.30
2010,10,15,03,40,5.30
2010,10,15,03,41,5.30
2010,10,15,03,42,5.30
2010,10,15,03,43,5.30
2010,10,15,03,44,5.30
2010,10,15,03,45,5.40
2010,10,15,03,46,5.40
2010,10,15,03,47,5.40
2010,10,15,03,48,5.40
2010,10,15,03,49,5.30
2010,10,15,03,50,5.30
2010,10,15,03,51,5.30
2010,10,15,03,52,5.30
2010,10,15,03,53,5.30
2010,10,15,03,54,5.30
2010,10,15,03,55,5.30
2010,10,15,03,56,5.30
2010,10,15,03,57,5.20
2010,10,15,03,58,5.20
2010,10,15,03,59,5.20
2010,10,15,04,00,5.30
2010,10,15,04,01,5.30
2010,10,15,04,02,5.30
2010,10,15,04,03,5.30
2010,10,15,04,04,5.30
2010,10,15,04,05,5.30
2010,10,15,04,06,5.30
2010,10,15,04,07,5.30
2010,10,15,04,08,5.30
2010,10,15,04,09,5.30
2010,10,15,04,10,5.20
2010,10,15,04,11,5.20
2010,10,15,04,12,5.20
2010,10,15,04,13,5.20
2010,10,15,04,14,5.20
2010,10,15,04,15,5.20
2010,10,15,04,16,5.20
2010,10,15,04,17,5.10
2010,10,15,04,18,5.10
2010,10,15,04,19,5.10
2010,10,15,04,20,5.10
2010,10,15,04,21,5.10
2010,10,15,04,22,5.10
2010,10,15,04,23,5.10
2010,10,15,04,24,5.00
2010,10,15,04,25,5.00
2010,10,15,04,26,5.00
2010,10,15,04,27,5.00
2010,10,15,04,28,5.00
2010,10,15,04,29,4.90
2010,10,15,04,30,4.90
2010,10,15,04,31,4.90
2010,10,15,04,32,4.90
2010,10,15,04,33,4.90
2010,10,15,04,34,4.80
2010,10,15,04,35,4.90
2010,10,15,04,36,4.90
2010,10,15,04,37,4.90
2010,10,15,04,38,4.90
2010,10,15,04,39,4.90
2010,10,15,04,40,4.90
2010,10,15,04,41,4.90
2010,10,15,04,42,4.80
2010,10,15,04,43,4.80
2010,10,15,04,44,4.80
2010,10,15,04,45,4.80
2010,10,15,04,46,4.80
2010,10,15,04,47,4.80
2010,10,15,04,48,4.70
2010,10,15,04,49,4.70
2010,10,15,04,50,4.70
2010,10,15,04,51,4.70
2010,10,15,04,52,4.80
2010,10,15,04,53,4.80
2010,10,15,04,54,4.80
2010,10,15,04,55,4.80
2010,10,15,04,56,4.80
2010,10,15,04,57,4.80
2010,10,15,04,58,4.80
2010,10,15,04,59,4.70
2010,10,15,05,00,4.70
2010,10,15,05,01,4.70
2010,10,15,05,02,4.70
2010,10,15,05,03,4.70
2010,10,15,05,04,4.70
2010,10,15,05,05,4.70
2010,10,15,05,06,4.70
2010,10,15,05,07,4.70
2010,10,15,05,08,4.70
2010,10,15,05,09,4.70
2010,10,15,05,10,4.70
2010,10,15,05,11,4.70
2010,10,15,05,12,4.60
2010,10,15,05,13,4.60
2010,10,15,05,14,4.60
2010,10,15,05,15,4.60
2010,10,15,05,16,4.60
2010,10,15,05,17,4.60
2010,10,15,05,18,4.60
2010,10,15,05,19,4.60
2010,10,15,05,20,4.60
2010,10,15,05,21,4.60
2010,10,15,05,22,4.60
2010,10,15,05,23,4.50
2010,10,15,05,24,4.50
2010,10,15,05,25,4.50
2010,10,15,05,26,4.50
2010,10,15,05,27,4.50
2010,10,15,05,28,4.50
2010,10,15,05,29,4.50
2010,10,15,05,30,4.40
2010,10,15,05,31,4.40
2010,10,15,05,32,4.40
2010,10,15,05,33,4.40
2010,10,15,05,34,4.40
2010,10,15,05,35,4.40
2010,10,15,05,36,4.50
2010,10,15,05,37,4.50
2010,10,15,05,38,4.50
2010,10,15,05,39,4.50
2010,10,15,05,40,4.40
2010,10,15,05,41,4.40
2010,10,15,05,42,4.40
2010,10,15,05,43,4.40
2010,10,15,05,44,4.40
2010,10,15,05,45,4.40
2010,10,15,05,46,4.40
2010,10,15,05,47,4.40
2010,10,15,05,48,4.40
2010,10,15,05,49,4.40
2010,10,15,05,50,4.30
2010,10,15,05,51,4.30
2010,10,15,05,52,4.30
2010,10,15,05,53,4.30
2010,10,15,05,54,4.30
2010,10,15,05,55,4.30
2010,10,15,05,56,4.30
2010,10,15,05,57,4.30
2010,10,15,05,58,4.30
2010,10,15,05,59,4.30
2010,10,15,06,00,4.30
2010,10,15,06,01,4.30
2010,10,15,06,02,4.30
2010,10,15,06,03,4.30
2010,10,15,06,04,4.30
2010,10,15,06,05,4.30
2010,10,15,06,06,4.30
2010,10,15,06,07,4.30
2010,10,15,06,08,4.30
2010,10,15,06,09,4.30
2010,10,15,06,10,4.30
2010,10,15,06,11,4.30
2010,10,15,06,12,4.30
2010,10,15,06,13,4.30
2010,10,15,06,14,4.30
2010,10,15,06,15,4.30
2010,10,15,06,16,4.30
2010,10,15,06,17,4.40
2010,10,15,06,18,4.30
2010,10,15,06,19,4.30
2010,10,15,06,20,4.30
2010,10,15,06,21,4.30
2010,10,15,06,22,4.30
2010,10,15,06,23,4.30
2010,10,15,06,24,4.30
2010,10,15,06,25,4.30
2010,10,15,06,26,4.30
2010,10,15,06,27,4.30
2010,10,15,06,28,4.20
2010,10,15,06,29,4.20
2010,10,15,06,30,4.20
2010,10,15,06,31,4.20
2010,10,15,06,32,4.20
2010,10,15,06,33,4.10
2010,10,15,06,34,4.10
2010,10,15,06,35,4.10
2010,10,15,06,36,4.10
2010,10,15,06,37,4.10
2010,10,15,06,38,4.10
2010,10,15,06,39,4.10
2010,10,15,06,40,4.10
2010,10,15,06,41,4.10
2010,10,15,06,42,4.10
2010,10,15,06,43,4.10
2010,10,15,06,44,4.10
2010,10,15,06,45,4.10
2010,10,15,06,46,4.10
2010,10,15,06,47,4.10
2010,10,15,06,48,4.10
2010,10,15,06,49,4.10
2010,10,15,06,50,4.10
2010,10,15,06,51,4.10
2010,10,15,06,52,4.10
2010,10,15,06,53,4.10
2010,10,15,06,54,4.00
2010,10,15,06,55,4.00
2010,10,15,06,56,4.00
2010,10,15,06,57,4.00
2010,10,15,06,58,4.10
2010,10,15,06,59,4.10
2010,10,15,07,00,4.10
2010,10,15,07,01,4.00
2010,10,15,07,02,4.00
2010,10,15,07,03,4.00
2010,10,15,07,04,3.90
2010,10,15,07,05,3.90
2010,10,15,07,06,3.90
2010,10,15,07,07,3.90
2010,10,15,07,08,3.90
2010,10,15,07,09,3.90
2010,10,15,07,10,3.90
2010,10,15,07,11,3.90
2010,10,15,07,12,3.90
2010,10,15,07,13,3.90
2010,10,15,07,14,3.90
2010,10,15,07,15,3.90
2010,10,15,07,16,3.90
2010,10,15,07,17,3.90
2010,10,15,07,18,3.90
2010,10,15,07,19,3.80
2010,10,15,07,20,3.80
2010,10,15,07,21,3.80
2010,10,15,07,22,3.90
2010,10,15,07,23,3.90
2010,10,15,07,24,3.90
2010,10,15,07,25,3.90
2010,10,15,07,26,3.90
2010,10,15,07,27,3.90
2010,10,15,07,28,3.90
2010,10,15,07,29,3.90
2010,10,15,07,30,3.90
2010,10,15,07,31,3.90
2010,10,15,07,32,4.00
2010,10,15,07,33,3.90
2010,10,15,07,34,3.90
2010,10,15,07,35,3.90
2010,10,15,07,36,3.90
2010,10,15,07,37,3.90
2010,10,15,07,38,3.90
2010,10,15,07,39,3.90
2010,10,15,07,40,3.90
2010,10,15,07,41,3.90
2010,10,15,07,42,3.90
2010,10,15,07,43,3.90
2010,10,15,07,44,3.90
2010,10,15,07,45,3.90
2010,10,15,07,46,3.80
2010,10,15,07,47,3.80
2010,10,15,07,48,3.80
2010,10,15,07,49,3.80
2010,10,15,07,50,3.80
2010,10,15,07,51,3.80
2010,10,15,07,52,3.80
2010,10,15,07,53,3.80
2010,10,15,07,54,3.80
2010,10,15,07,55,3.80
2010,10,15,07,56,3.80
2010,10,15,07,57,3.80
2010,10,15,07,58,3.90
2010,10,15,07,59,3.90
2010,10,15,08,00,4.00
2010,10,15,08,01,4.00
2010,10,15,08,02,4.00
2010,10,15,08,03,4.00
2010,10,15,08,04,4.00
2010,10,15,08,05,4.00
2010,10,15,08,06,4.10
2010,10,15,08,07,4.10
2010,10,15,08,08,4.10
2010,10,15,08,09,4.10
2010,10,15,08,10,4.10
2010,10,15,08,11,4.10
2010,10,15,08,12,4.10
2010,10,15,08,13,4.10
2010,10,15,08,14,4.20
2010,10,15,08,15,4.10
2010,10,15,08,16,4.10
2010,10,15,08,17,4.20
2010,10,15,08,18,4.20
2010,10,15,08,19,4.20
2010,10,15,08,20,4.20
2010,10,15,08,21,4.20
2010,10,15,08,22,4.20
2010,10,15,08,23,4.20
2010,10,15,08,24,4.20
2010,10,15,08,25,4.20
2010,10,15,08,26,4.30
2010,10,15,08,27,4.30
2010,10,15,08,28,4.30
2010,10,15,08,29,4.30
2010,10,15,08,30,4.40
2010,10,15,08,31,4.40
2010,10,15,08,32,4.40
2010,10,15,08,33,4.40
2010,10,15,08,34,4.50
2010,10,15,08,35,4.50
2010,10,15,08,36,4.50
2010,10,15,08,37,4.60
2010,10,15,08,38,4.60
2010,10,15,08,39,4.60
2010,10,15,08,40,4.70
2010,10,15,08,41,4.70
2010,10,15,08,42,4.80
2010,10,15,08,43,4.80
2010,10,15,08,44,4.80
2010,10,15,08,45,4.90
2010,10,15,08,46,4.90
2010,10,15,08,47,4.90
2010,10,15,08,48,4.90
2010,10,15,08,49,5.00
2010,10,15,08,50,5.10
2010,10,15,08,51,5.10
2010,10,15,08,52,5.10
2010,10,15,08,53,5.10
2010,10,15,08,54,5.20
2010,10,15,08,55,5.20
2010,10,15,08,56,5.20
2010,10,15,08,57,5.30
2010,10,15,08,58,5.30
2010,10,15,08,59,5.40
2010,10,15,09,00,5.40
2010,10,15,09,01,5.40
2010,10,15,09,02,5.40
2010,10,15,09,03,5.50
2010,10,15,09,04,5.50
2010,10,15,09,05,5.60
2010,10,15,09,06,5.60
2010,10,15,09,07,5.70
2010,10,15,09,08,5.80
2010,10,15,09,09,5.90
2010,10,15,09,10,6.00
2010,10,15,09,11,6.10
2010,10,15,09,12,6.10
2010,10,15,09,13,6.20
2010,10,15,09,14,6.20
2010,10,15,09,15,6.20
2010,10,15,09,16,6.20
2010,10,15,09,17,6.30
2010,10,15,09,18,6.30
2010,10,15,09,19,6.40
2010,10,15,09,20,6.50
2010,10,15,09,21,6.60
2010,10,15,09,22,6.70
2010,10,15,09,23,6.70
2010,10,15,09,24,6.80
2010,10,15,09,25,6.80
2010,10,15,09,26,6.80
2010,10,15,09,27,6.80
2010,10,15,09,28,6.80
2010,10,15,09,29,6.90
2010,10,15,09,30,6.90
2010,10,15,09,31,7.00
2010,10,15,09,32,7.00
2010,10,15,09,33,7.10
2010,10,15,09,34,7.20
2010,10,15,09,35,7.20
2010,10,15,09,36,7.30
2010,10,15,09,37,7.30
2010,10,15,09,38,7.40
2010,10,15,09,39,7.50
2010,10,15,09,40,7.50
2010,10,15,09,41,7.60
2010,10,15,09,42,7.60
2010,10,15,09,43,7.70
2010,10,15,09,44,7.80
2010,10,15,09,45,7.80
2010,10,15,09,46,7.90
2010,10,15,09,47,8.00
2010,10,15,09,48,8.10
2010,10,15,09,49,8.10
2010,10,15,09,50,8.20
2010,10,15,09,51,8.20
2010,10,15,09,52,8.30
2010,10,15,09,53,8.40
2010,10,15,09,54,8.40
2010,10,15,09,55,8.50
2010,10,15,09,56,8.50
2010,10,15,09,57,8.50
2010,10,15,09,58,8.60
2010,10,15,09,59,8.60
2010,10,15,10,00,8.60
2010,10,15,10,01,8.70
2010,10,15,10,02,8.70
2010,10,15,10,03,8.80
2010,10,15,10,04,8.80
2010,10,15,10,05,8.90
2010,10,15,10,06,8.90
2010,10,15,10,07,8.90
2010,10,15,10,08,9.00
2010,10,15,10,09,9.10
2010,10,15,10,10,9.10
2010,10,15,10,11,9.20
2010,10,15,10,12,9.20
2010,10,15,10,13,9.30
2010,10,15,10,14,9.40
2010,10,15,10,15,9.50
2010,10,15,10,16,9.50
2010,10,15,10,17,9.50
2010,10,15,10,18,9.50
2010,10,15,10,19,9.60
2010,10,15,10,20,9.60
2010,10,15,10,21,9.60
2010,10,15,10,22,9.60
2010,10,15,10,23,9.60
2010,10,15,10,24,9.60
2010,10,15,10,25,9.60
2010,10,15,10,26,9.70
2010,10,15,10,27,9.70
2010,10,15,10,28,9.80
2010,10,15,10,29,9.80
2010,10,15,10,30,9.80
2010,10,15,10,31,9.80
2010,10,15,10,32,9.80
2010,10,15,10,33,9.90
2010,10,15,10,34,9.90
2010,10,15,10,35,9.90
2010,10,15,10,36,10.00
2010,10,15,10,37,10.10
2010,10,15,10,38,10.10
2010,10,15,10,39,10.10
2010,10,15,10,40,10.20
2010,10,15,10,41,10.20
2010,10,15,10,42,10.20
2010,10,15,10,43,10.30
2010,10,15,10,44,10.30
2010,10,15,10,45,10.30
2010,10,15,10,46,10.30
2010,10,15,10,47,10.30
2010,10,15,10,48,10.30
2010,10,15,10,49,10.30
2010,10,15,10,50,10.40
2010,10,15,10,51,10.40
2010,10,15,10,52,10.40
2010,10,15,10,53,10.40
2010,10,15,10,54,10.50
2010,10,15,10,55,10.60
2010,10,15,10,56,10.60
2010,10,15,10,57,10.70
2010,10,15,10,58,10.80
2010,10,15,10,59,10.80
2010,10,15,11,00,10.80
2010,10,15,11,01,10.90
2010,10,15,11,02,10.90
2010,10,15,11,03,10.90
2010,10,15,11,04,10.80
2010,10,15,11,05,10.80
2010,10,15,11,06,10.80
2010,10,15,11,07,10.80
2010,10,15,11,08,10.70
2010,10,15,11,09,10.80
2010,10,15,11,10,10.80
2010,10,15,11,11,10.80
2010,10,15,11,12,10.80
2010,10,15,11,13,10.80
2010,10,15,11,14,10.90
2010,10,15,11,15,10.90
2010,10,15,11,16,11.00
2010,10,15,11,17,11.00
2010,10,15,11,18,11.10
2010,10,15,11,19,11.10
2010,10,15,11,20,11.20
2010,10,15,11,21,11.20
2010,10,15,11,22,11.30
2010,10,15,11,23,11.30
2010,10,15,11,24,11.30
2010,10,15,11,25,11.30
2010,10,15,11,26,11.30
2010,10,15,11,27,11.30
2010,10,15,11,28,11.30
2010,10,15,11,29,11.30
2010,10,15,11,30,11.30
2010,10,15,11,31,11.30
2010,10,15,11,32,11.30
2010,10,15,11,33,11.30
2010,10,15,11,34,11.30
2010,10,15,11,35,11.30
2010,10,15,11,36,11.30
2010,10,15,11,37,11.30
2010,10,15,11,38,11.30
2010,10,15,11,39,11.40
2010,10,15,11,40,11.50
2010,10,15,11,41,11.60
2010,10,15,11,42,11.60
2010,10,15,11,43,11.70
2010,10,15,11,44,11.70
2010,10,15,11,45,11.70
2010,10,15,11,46,11.80
2010,10,15,11,47,11.90
2010,10,15,11,48,12.00
2010,10,15,11,49,12.00
2010,10,15,11,50,11.90
2010,10,15,11,51,11.90
2010,10,15,11,52,11.90
2010,10,15,11,53,11.80
2010,10,15,11,54,11.80
2010,10,15,11,55,11.80
2010,10,15,11,56,11.80
2010,10,15,11,57,11.80
2010,10,15,11,58,11.80
2010,10,15,11,59,11.80
2010,10,15,12,00,11.80
2010,10,15,12,01,11.80
2010,10,15,12,02,11.80
2010,10,15,12,03,11.80
2010,10,15,12,04,11.80
2010,10,15,12,05,11.80
2010,10,15,12,06,11.80
2010,10,15,12,07,11.80
2010,10,15,12,08,11.80
2010,10,15,12,09,11.70
2010,10,15,12,10,11.70
2010,10,15,12,11,11.70
2010,10,15,12,12,11.80
2010,10,15,12,13,11.80
2010,10,15,12,14,11.80
2010,10,15,12,15,11.90
2010,10,15,12,16,11.90
2010,10,15,12,17,11.90
2010,10,15,12,18,11.90
2010,10,15,12,19,11.90
2010,10,15,12,20,11.90
2010,10,15,12,21,11.90
2010,10,15,12,22,11.90
2010,10,15,12,23,12.00
2010,10,15,12,24,12.00
2010,10,15,12,25,11.90
2010,10,15,12,26,11.90
2010,10,15,12,27,11.80
2010,10,15,12,28,11.80
2010,10,15,12,29,11.70
2010,10,15,12,30,11.70
2010,10,15,12,31,11.70
2010,10,15,12,32,11.70
2010,10,15,12,33,11.80
2010,10,15,12,34,11.80
2010,10,15,12,35,11.80
2010,10,15,12,36,11.80
2010,10,15,12,37,11.80
2010,10,15,12,38,11.70
2010,10,15,12,39,11.70
2010,10,15,12,40,11.70
2010,10,15,12,41,11.80
2010,10,15,12,42,11.80
2010,10,15,12,43,11.90
2010,10,15,12,44,11.90
2010,10,15,12,45,11.90
2010,10,15,12,46,12.00
2010,10,15,12,47,12.00
2010,10,15,12,48,11.90
2010,10,15,12,49,11.90
2010,10,15,12,50,11.80
2010,10,15,12,51,11.60
2010,10,15,12,52,11.50
2010,10,15,12,53,11.40
2010,10,15,12,54,11.40
2010,10,15,12,55,11.30
2010,10,15,12,56,11.30
2010,10,15,12,57,11.30
2010,10,15,12,58,11.20
2010,10,15,12,59,11.20
2010,10,15,13,00,11.20
2010,10,15,13,01,11.20
2010,10,15,13,02,11.20
2010,10,15,13,03,11.10
2010,10,15,13,04,11.10
2010,10,15,13,05,11.10
2010,10,15,13,06,11.00
2010,10,15,13,07,11.00
2010,10,15,13,08,11.00
2010,10,15,13,09,11.00
2010,10,15,13,10,11.00
2010,10,15,13,11,11.00
2010,10,15,13,12,11.10
2010,10,15,13,13,11.20
2010,10,15,13,14,11.30
2010,10,15,13,15,11.40
2010,10,15,13,16,11.40
2010,10,15,13,17,11.40
2010,10,15,13,18,11.40
2010,10,15,13,19,11.30
2010,10,15,13,20,11.20
2010,10,15,13,21,11.10
2010,10,15,13,22,11.00
2010,10,15,13,23,10.90
2010,10,15,13,24,10.90
2010,10,15,13,25,10.80
2010,10,15,13,26,10.80
2010,10,15,13,27,10.80
2010,10,15,13,28,10.70
2010,10,15,13,29,10.70
2010,10,15,13,30,10.70
2010,10,15,13,31,10.70
2010,10,15,13,32,10.60
2010,10,15,13,33,10.50
2010,10,15,13,34,10.40
2010,10,15,13,35,10.40
2010,10,15,13,36,10.30
2010,10,15,13,37,10.30
2010,10,15,13,38,10.20
2010,10,15,13,39,10.10
2010,10,15,13,40,10.00
2010,10,15,13,41,10.00
2010,10,15,13,42,9.90
2010,10,15,13,43,9.90
2010,10,15,13,44,9.90
2010,10,15,13,45,9.80
2010,10,15,13,46,9.80
2010,10,15,13,47,9.80
2010,10,15,13,48,9.80
2010,10,15,13,49,9.80
2010,10,15,13,50,9.80
2010,10,15,13,51,9.70
2010,10,15,13,52,9.70
2010,10,15,13,53,9.70
2010,10,15,13,54,9.80
2010,10,15,13,55,9.80
2010,10,15,13,56,9.90
2010,10,15,13,57,9.90
2010,10,15,13,58,9.90
2010,10,15,13,59,10.00
2010,10,15,14,00,10.10
2010,10,15,14,01,10.10
2010,10,15,14,02,10.10
2010,10,15,14,03,10.10
2010,10,15,14,04,10.10
2010,10,15,14,05,10.20
2010,10,15,14,06,10.20
2010,10,15,14,07,10.30
2010,10,15,14,08,10.30
2010,10,15,14,09,10.30
2010,10,15,14,10,10.20
2010,10,15,14,11,10.20
2010,10,15,14,12,10.20
2010,10,15,14,13,10.10
2010,10,15,14,14,10.10
2010,10,15,14,15,10.00
2010,10,15,14,16,10.00
2010,10,15,14,17,9.90
2010,10,15,14,18,9.80
2010,10,15,14,19,9.80
2010,10,15,14,20,9.80
2010,10,15,14,21,9.70
2010,10,15,14,22,9.70
2010,10,15,14,23,9.70
2010,10,15,14,24,9.70
2010,10,15,14,25,9.70
2010,10,15,14,26,9.70
2010,10,15,14,27,9.70
2010,10,15,14,28,9.70
2010,10,15,14,29,9.70
2010,10,15,14,30,9.70
2010,10,15,14,31,9.70
2010,10,15,14,32,9.80
2010,10,15,14,33,9.70
2010,10,15,14,34,9.70
2010,10,15,14,35,9.70
2010,10,15,14,36,9.70
2010,10,15,14,37,9.60
2010,10,15,14,38,9.60
2010,10,15,14,39,9.60
2010,10,15,14,40,9.60
2010,10,15,14,41,9.60
2010,10,15,14,42,9.60
2010,10,15,14,43,9.60
2010,10,15,14,44,9.60
2010,10,15,14,45,9.50
2010,10,15,14,46,9.50
2010,10,15,14,47,9.50
2010,10,15,14,48,9.40
2010,10,15,14,49,9.40
2010,10,15,14,50,9.40
2010,10,15,14,51,9.40
2010,10,15,14,52,9.30
2010,10,15,14,53,9.30
2010,10,15,14,54,9.30
2010,10,15,14,55,9.30
2010,10,15,14,56,9.20
2010,10,15,14,57,9.20
2010,10,15,14,58,9.20
2010,10,15,14,59,9.20
2010,10,15,15,00,9.20
2010,10,15,15,01,9.10
2010,10,15,15,02,9.10
2010,10,15,15,03,9.10
2010,10,15,15,04,9.10
2010,10,15,15,05,9.20
2010,10,15,15,06,9.30
2010,10,15,15,07,9.50
2010,10,15,15,08,9.60
2010,10,15,15,09,9.70
2010,10,15,15,10,9.80
2010,10,15,15,11,9.80
2010,10,15,15,12,9.80
2010,10,15,15,13,9.80
2010,10,15,15,14,9.80
2010,10,15,15,15,9.70
2010,10,15,15,16,9.70
2010,10,15,15,17,9.70
2010,10,15,15,18,9.70
2010,10,15,15,19,9.60
2010,10,15,15,20,9.60
2010,10,15,15,21,9.60
2010,10,15,15,22,9.60
2010,10,15,15,23,9.60
2010,10,15,15,24,9.70
2010,10,15,15,25,9.70
2010,10,15,15,26,9.80
2010,10,15,15,27,9.80
2010,10,15,15,28,9.80
2010,10,15,15,29,9.80
2010,10,15,15,30,9.80
2010,10,15,15,31,9.90
2010,10,15,15,32,9.90
2010,10,15,15,33,9.90
2010,10,15,15,34,9.90
2010,10,15,15,35,9.90
2010,10,15,15,36,9.90
2010,10,15,15,37,9.90
2010,10,15,15,38,9.90
2010,10,15,15,39,10.00
2010,10,15,15,40,10.00
2010,10,15,15,41,10.00
2010,10,15,15,42,10.10
2010,10,15,15,43,10.10
2010,10,15,15,44,10.10
2010,10,15,15,45,10.00
2010,10,15,15,46,10.00
2010,10,15,15,47,10.00
2010,10,15,15,48,10.00
2010,10,15,15,49,10.10
2010,10,15,15,50,10.10
2010,10,15,15,51,10.10
2010,10,15,15,52,10.10
2010,10,15,15,53,10.20
2010,10,15,15,54,10.30
2010,10,15,15,55,10.30
2010,10,15,15,56,10.30
2010,10,15,15,57,10.30
2010,10,15,15,58,10.30
2010,10,15,15,59,10.20
2010,10,15,16,00,10.20
2010,10,15,16,01,10.20
2010,10,15,16,02,10.20
2010,10,15,16,03,10.30
2010,10,15,16,04,10.30
2010,10,15,16,05,10.30
2010,10,15,16,06,10.40
2010,10,15,16,07,10.40
2010,10,15,16,08,10.30
2010,10,15,16,09,10.30
2010,10,15,16,10,10.20
2010,10,15,16,11,10.10
2010,10,15,16,12,10.00
2010,10,15,16,13,10.00
2010,10,15,16,14,10.00
2010,10,15,16,15,10.00
2010,10,15,16,16,9.90
2010,10,15,16,17,9.80
2010,10,15,16,18,9.80
2010,10,15,16,19,9.70
2010,10,15,16,20,9.60
2010,10,15,16,21,9.60
2010,10,15,16,22,9.60
2010,10,15,16,23,9.50
2010,10,15,16,24,9.50
2010,10,15,16,25,9.40
2010,10,15,16,26,9.40
2010,10,15,16,27,9.30
2010,10,15,16,28,9.30
2010,10,15,16,29,9.30
2010,10,15,16,30,9.20
2010,10,15,16,31,9.20
2010,10,15,16,32,9.20
2010,10,15,16,33,9.20
2010,10,15,16,34,9.10
2010,10,15,16,35,9.10
2010,10,15,16,36,9.10
2010,10,15,16,37,9.00
2010,10,15,16,38,9.00
2010,10,15,16,39,9.00
2010,10,15,16,40,9.00
2010,10,15,16,41,9.00
2010,10,15,16,42,8.90
2010,10,15,16,43,8.90
2010,10,15,16,44,8.90
2010,10,15,16,45,8.90
2010,10,15,16,46,8.90
2010,10,15,16,47,8.90
2010,10,15,16,48,8.80
2010,10,15,16,49,8.80
2010,10,15,16,50,8.80
2010,10,15,16,51,8.70
2010,10,15,16,52,8.70
2010,10,15,16,53,8.70
2010,10,15,16,54,8.60
2010,10,15,16,55,8.60
2010,10,15,16,56,8.60
2010,10,15,16,57,8.60
2010,10,15,16,58,8.50
2010,10,15,16,59,8.50
2010,10,15,17,00,8.40
2010,10,15,17,01,8.40
2010,10,15,17,02,8.30
2010,10,15,17,03,8.30
2010,10,15,17,04,8.30
2010,10,15,17,05,8.30
2010,10,15,17,06,8.20
2010,10,15,17,07,8.20
2010,10,15,17,08,8.20
2010,10,15,17,09,8.20
2010,10,15,17,10,8.10
2010,10,15,17,11,8.10
2010,10,15,17,12,8.10
2010,10,15,17,13,8.10
2010,10,15,17,14,8.00
2010,10,15,17,15,8.00
2010,10,15,17,16,8.00
2010,10,15,17,17,7.90
2010,10,15,17,18,7.90
2010,10,15,17,19,7.90
2010,10,15,17,20,7.80
2010,10,15,17,21,7.80
2010,10,15,17,22,7.80
2010,10,15,17,23,7.80
2010,10,15,17,24,7.80
2010,10,15,17,25,7.80
2010,10,15,17,26,7.80
2010,10,15,17,27,7.80
2010,10,15,17,28,7.80
2010,10,15,17,29,7.70
2010,10,15,17,30,7.70
2010,10,15,17,31,7.70
2010,10,15,17,32,7.70
2010,10,15,17,33,7.60
2010,10,15,17,34,7.60
2010,10,15,17,35,7.60
2010,10,15,17,36,7.60
2010,10,15,17,37,7.60
2010,10,15,17,38,7.60
2010,10,15,17,39,7.60
2010,10,15,17,40,7.60
2010,10,15,17,41,7.60
2010,10,15,17,42,7.50
2010,10,15,17,43,7.50
2010,10,15,17,44,7.50
2010,10,15,17,45,7.40
2010,10,15,17,46,7.40
2010,10,15,17,47,7.30
2010,10,15,17,48,7.30
2010,10,15,17,49,7.30
2010,10,15,17,50,7.30
2010,10,15,17,51,7.20
2010,10,15,17,52,7.20
2010,10,15,17,53,7.20
2010,10,15,17,54,7.20
2010,10,15,17,55,7.20